This demonstration page uses our WeatherBlox Daily Observations layout. Learn more.

41.55636, -103.73856

Hourly Observations for April 22, 2019

Temp ( °F °C ) Dew Point ( °F °C ) Humidity (%) Winds ( mph kmh ) Pressure ( in mb ) Visibility ( mi km ) Precip ( " mm )
12:41 am 00:41 Cloudy 43 6.1 40 4.4 89 89 NW 8 13 30.15 1021 10 16.09344 0 0
12:53 am 00:53 Cloudy 43 6.1 40 4.4 89 89 NW 10 17 30.12 1020 10 16.09344 0 0
1:04 am 01:04 Cloudy 43 6.1 40 4.4 89 89 NNW 7 11 30.15 1021 10 16.09344 0 0
1:53 am 01:53 Cloudy 42 5.6 39 3.9 89 89 N 9 15 30.15 1021 10 16.09344 0 0
2:53 am 02:53 Cloudy with Light Rain 41 5 38 3.3 89 89 N 12 19 30.18 1022 10 16.09344 0.001 0.001
3:53 am 03:53 Cloudy with Light Rain 40 4.4 38 3.3 93 93 NNW 6 9 30.21 1023 6 9.656064 0.04 1.016
4:25 am 04:25 Cloudy with Light Rain 40 4.4 38 3.3 93 93 NW 8 13 30.24 1024 9 14.484096 0.02 0.508
4:53 am 04:53 Cloudy with Light Rain 40 4.4 38 3.3 93 93 NNW 9 15 30.21 1023 10 16.09344 0.03 0.762
5:07 am 05:07 Cloudy with Light Rain 40 4.4 38 3.3 93 93 NNW 6 9 30.24 1024 10 16.09344 0.01 0.254
5:27 am 05:27 Cloudy with Light Rain 40 4.4 38 3.3 93 93 NNW 7 11 30.24 1024 10 16.09344 0.01 0.254
5:46 am 05:46 Cloudy with Light Rain 39 4 37 3 93 93 N 6 9 30.3 1026 10 16.09344 0 0
5:53 am 05:53 Cloudy with Light Rain 40 4.4 38 3.3 93 93 N 7 11 30.21 1023 10 16.09344 0.02 0.508
6:53 am 06:53 Cloudy 41 5 38 3.3 89 89 NNW 6 9 30.24 1024 10 16.09344 0.001 0.001
7:53 am 07:53 Cloudy 41 5 38 3.3 89 89 N 12 19 30.27 1025 10 16.09344 0.001 0.001
8:53 am 08:53 Cloudy 44 6.7 38 3.3 79 79 N 10 17 30.27 1025 10 16.09344 0 0
9:51 am 09:51 Cloudy 46 8 37 3 71 71 NNE 10 17 30.3 1026 10 16.09344 0 0
9:53 am 09:53 Cloudy 46 7.8 38 3.3 73 73 N 12 19 30.27 1025 10 16.09344 0 0
10:53 am 10:53 Cloudy 47 8.3 37 2.8 69 69 N 7 11 30.3 1026 10 16.09344 0 0
11:27 am 11:27 Cloudy 49 9.4 37 2.8 64 64 NNW 6 9 30.27 1025 10 16.09344 0 0
11:53 am 11:53 Cloudy 50 10 38 3.3 63 63 N 5 7 30.27 1025 10 16.09344 0 0
12:53 pm 12:53 Cloudy 53 11.7 36 2.2 52 52 NE 8 13 30.24 1024 10 16.09344 0 0
1:53 pm 13:53 Cloudy 54 12.2 35 1.7 49 49 E 7 11 30.24 1024 10 16.09344 0 0
2:53 pm 14:53 Cloudy 55 12.8 35 1.7 47 47 ENE 10 17 30.24 1024 10 16.09344 0 0
3:53 pm 15:53 Cloudy 55 12.8 34 1.1 45 45 E 6 9 30.21 1023 10 16.09344 0 0
4:53 pm 16:53 Cloudy 55 12.8 35 1.7 47 47 ESE 5 7 30.21 1023 10 16.09344 0 0
5:53 pm 17:53 Cloudy 55 12.8 36 2.2 49 49 E 9 15 30.21 1023 10 16.09344 0 0
6:53 pm 18:53 Cloudy 54 12.2 36 2.2 51 51 SE 5 7 30.21 1023 10 16.09344 0 0
7:53 pm 19:53 Cloudy 51 10.6 39 3.9 64 64 S 3 6 30.21 1023 10 16.09344 0 0
8:53 pm 20:53 Clear 50 10 37 2.8 61 61 SSW 6 9 30.21 1023 10 16.09344 0 0
9:53 pm 21:53 Clear 45 7.2 38 3.3 77 77 Calm 30.21 1023 10 16.09344 0 0
10:53 pm 22:53 Clear 41 5 37 2.8 86 86 Calm 30.21 1023 10 16.09344 0 0
11:53 pm 23:53 Clear 39 3.9 35 1.7 86 86 NNE 5 7 30.21 1023 10 16.09344 0 0

Powered by AerisWeather